Location: ???????
(55.3754°N, 39.3545°E)
Time: 02:02:42
(UTC+00:00)

Cosmos 1302 Rocket - Pass Details

Date: 14 April 2026
Orbit: 752 x 771 km, 74.0° (Epoch: 20 May)

Event Time Altitude Azimuth Distance (km) Brightness Sun altitude
Exits shadow 23:29:11 35° 180° (S) 1,203 4.6 -19.8°
Maximum altitude 23:31:16 64° 112° (ESE) 835 4.2 -19.6°
Drops below altitude 10° 23:36:23 10° 32° (NNE) 2,288 7.7 -19.2°
Sets 23:38:46 0° 30° (NNE) 3,218 8.9 -19.0°
